Location: Dittelbrunn
(50.0738°N, 10.2196°E)
Time: 17:10:02
(UTC+00:00)

Lacrosse 4 Rocket - Pass Details

Date: 18 September 2020
Orbit: 543 x 616 km, 68.0° (Epoch: 31 October)

Event Time Altitude Azimuth Distance (km) Brightness Sun altitude
Rises 20:58:17 0° 327° (NNW) 2,716 6.0 -31.0°
Reaches altitude 10° 21:00:30 10° 331° (NNW) 1,822 4.8 -31.2°
Enters shadow 21:02:09 23° 339° (NNW) 1,195 3.6 -31.4°
